TimeCDT,TemperatureF,Dew PointF,Humidity,Sea Level PressureIn,VisibilityMPH,Wind Direction,Wind SpeedMPH,Gust SpeedMPH,PrecipitationIn,Events,Conditions,WindDirDegrees,DateUTC
12:15 AM,78.6,71.8,79,29.93,10.0,SSE,5.8,-,N/A,,Clear,150,2013-05-31 05:15:00
12:35 AM,78.3,72.0,81,29.94,10.0,Calm,Calm,-,N/A,,Clear,0,2013-05-31 05:35:00
12:55 AM,77.9,72.0,82,29.93,10.0,Calm,Calm,-,N/A,,Clear,0,2013-05-31 05:55:00
1:15 AM,77.9,72.0,82,29.94,10.0,SSE,3.5,-,N/A,,Clear,150,2013-05-31 06:15:00
1:35 AM,77.5,72.0,83,29.94,10.0,Calm,Calm,-,N/A,,Scattered Clouds,0,2013-05-31 06:35:00
1:55 AM,77.5,72.0,83,29.93,10.0,Calm,Calm,-,N/A,,Overcast,0,2013-05-31 06:55:00
2:15 AM,77.2,71.8,83,29.91,10.0,Calm,Calm,-,N/A,,Overcast,0,2013-05-31 07:15:00
2:35 AM,77.2,72.0,84,29.91,10.0,SSE,6.9,-,N/A,,Overcast,160,2013-05-31 07:35:00
2:55 AM,77.2,71.8,83,29.93,10.0,Calm,Calm,-,N/A,,Overcast,0,2013-05-31 07:55:00
3:15 AM,77.2,71.8,83,29.94,10.0,SSE,9.2,-,N/A,,Overcast,160,2013-05-31 08:15:00
3:35 AM,77.5,71.8,82,29.94,10.0,Calm,Calm,-,N/A,,Overcast,0,2013-05-31 08:35:00
3:55 AM,77.9,71.8,81,29.96,10.0,Calm,Calm,-,N/A,,Overcast,0,2013-05-31 08:55:00
4:15 AM,77.5,71.8,82,29.96,10.0,Calm,Calm,-,N/A,,Overcast,0,2013-05-31 09:15:00
4:35 AM,77.4,72.0,83,29.97,10.0,Calm,Calm,-,N/A,,Overcast,0,2013-05-31 09:35:00
4:55 AM,77.2,72.0,84,29.96,10.0,Calm,Calm,-,N/A,,Mostly Cloudy,0,2013-05-31 09:55:00
5:15 AM,77.0,72.0,84,29.96,10.0,Calm,Calm,-,N/A,,Mostly Cloudy,0,2013-05-31 10:15:00
5:35 AM,76.5,72.0,86,29.97,10.0,Calm,Calm,-,N/A,,Mostly Cloudy,0,2013-05-31 10:35:00
5:55 AM,75.7,71.8,87,29.98,10.0,Calm,Calm,-,N/A,,Scattered Clouds,0,2013-05-31 10:55:00
6:15 AM,76.3,72.1,87,29.98,10.0,Calm,Calm,-,N/A,,Mostly Cloudy,0,2013-05-31 11:15:00
6:35 AM,76.5,72.1,86,29.99,10.0,Calm,Calm,-,N/A,,Overcast,0,2013-05-31 11:35:00
6:55 AM,76.6,72.5,87,29.99,10.0,Calm,Calm,-,N/A,,Overcast,0,2013-05-31 11:55:00
7:15 AM,77.2,72.5,85,29.99,10.0,Calm,Calm,-,N/A,,Overcast,0,2013-05-31 12:15:00
7:35 AM,77.9,72.7,84,29.99,10.0,Calm,Calm,-,N/A,,Overcast,0,2013-05-31 12:35:00
7:55 AM,78.8,72.9,82,29.99,10.0,Calm,Calm,-,N/A,,Overcast,0,2013-05-31 12:55:00
8:15 AM,79.7,72.9,80,29.98,10.0,SSE,10.4,-,N/A,,Scattered Clouds,160,2013-05-31 13:15:00
8:35 AM,80.1,72.3,77,29.98,10.0,SSE,4.6,-,N/A,,Scattered Clouds,160,2013-05-31 13:35:00
8:55 AM,81.0,72.3,75,29.97,10.0,South,10.4,16.1,N/A,,Mostly Cloudy,180,2013-05-31 13:55:00
9:15 AM,80.4,72.5,77,29.96,10.0,South,8.1,-,N/A,,Overcast,170,2013-05-31 14:15:00
9:35 AM,82.4,72.9,73,29.96,10.0,South,10.4,17.3,N/A,,Mostly Cloudy,180,2013-05-31 14:35:00
9:55 AM,82.8,72.7,71,29.96,10.0,South,9.2,16.1,N/A,,Scattered Clouds,190,2013-05-31 14:55:00
10:15 AM,82.4,72.3,71,29.96,10.0,South,12.7,17.3,N/A,,Overcast,180,2013-05-31 15:15:00
10:35 AM,84.0,73.2,70,29.96,10.0,South,9.2,-,N/A,,Overcast,170,2013-05-31 15:35:00
10:55 AM,85.8,73.8,67,29.96,10.0,South,5.8,17.3,N/A,,Mostly Cloudy,180,2013-05-31 15:55:00
11:15 AM,84.6,73.2,69,29.96,10.0,South,9.2,-,N/A,,Mostly Cloudy,180,2013-05-31 16:15:00
11:35 AM,85.1,73.2,67,29.96,10.0,South,5.8,-,N/A,,Overcast,170,2013-05-31 16:35:00
11:55 AM,84.6,73.4,69,29.95,10.0,SSE,3.5,-,N/A,,Overcast,160,2013-05-31 16:55:00
12:15 PM,86.7,73.8,65,29.95,10.0,South,5.8,-,N/A,,Overcast,170,2013-05-31 17:15:00
12:35 PM,85.5,73.8,68,29.94,10.0,Calm,Calm,-,N/A,,Overcast,0,2013-05-31 17:35:00
12:55 PM,86.0,73.8,67,29.94,10.0,SSE,6.9,-,N/A,,Overcast,150,2013-05-31 17:55:00
1:15 PM,86.0,73.8,67,29.94,10.0,South,4.6,-,N/A,,Overcast,170,2013-05-31 18:15:00
1:35 PM,87.6,74.3,64,29.93,10.0,Calm,Calm,-,N/A,,Overcast,0,2013-05-31 18:35:00
1:55 PM,89.1,74.8,63,29.92,10.0,SSE,6.9,-,N/A,,Overcast,160,2013-05-31 18:55:00
2:15 PM,88.5,74.7,63,29.92,10.0,South,6.9,-,N/A,,Overcast,170,2013-05-31 19:15:00
2:35 PM,89.4,74.7,62,29.91,10.0,South,10.4,-,N/A,,Overcast,180,2013-05-31 19:35:00
2:55 PM,89.4,73.8,60,29.91,10.0,South,3.5,17.3,N/A,,Overcast,190,2013-05-31 19:55:00
3:15 PM,89.6,74.3,61,29.90,10.0,South,4.6,-,N/A,,Mostly Cloudy,170,2013-05-31 20:15:00
3:35 PM,90.1,73.8,58,29.90,10.0,South,10.4,-,N/A,,Mostly Cloudy,170,2013-05-31 20:35:00
3:55 PM,91.9,75.4,58,29.89,10.0,South,4.6,-,N/A,,Scattered Clouds,180,2013-05-31 20:55:00
4:15 PM,90.1,74.1,59,29.88,10.0,South,4.6,-,N/A,,Scattered Clouds,180,2013-05-31 21:15:00
4:35 PM,91.8,74.1,56,29.88,10.0,South,10.4,-,N/A,,Scattered Clouds,190,2013-05-31 21:35:00
4:55 PM,89.2,74.7,62,29.87,10.0,Calm,Calm,-,N/A,,Scattered Clouds,0,2013-05-31 21:55:00
5:15 PM,90.3,74.3,59,29.87,10.0,SSE,5.8,-,N/A,,Mostly Cloudy,160,2013-05-31 22:15:00
5:35 PM,91.0,74.1,57,29.87,10.0,South,5.8,-,N/A,,Scattered Clouds,190,2013-05-31 22:35:00
5:55 PM,88.0,73.8,63,29.86,10.0,Calm,Calm,-,N/A,,Scattered Clouds,0,2013-05-31 22:55:00
6:15 PM,89.6,74.5,61,29.87,10.0,South,9.2,-,N/A,,Scattered Clouds,190,2013-05-31 23:15:00
6:35 PM,87.6,72.7,61,29.87,10.0,South,6.9,-,N/A,,Scattered Clouds,170,2013-05-31 23:35:00
6:55 PM,87.4,73.0,62,29.87,10.0,South,6.9,-,N/A,,Scattered Clouds,180,2013-05-31 23:55:00
7:15 PM,86.9,73.6,64,29.87,10.0,Calm,Calm,-,N/A,,Scattered Clouds,0,2013-06-01 00:15:00
7:35 PM,86.4,73.8,66,29.86,10.0,Calm,Calm,-,N/A,,Scattered Clouds,0,2013-06-01 00:35:00
7:55 PM,85.8,73.4,66,29.86,10.0,Calm,Calm,-,N/A,,Clear,0,2013-06-01 00:55:00
8:15 PM,85.1,73.4,68,29.86,10.0,SSE,6.9,-,N/A,,Scattered Clouds,160,2013-06-01 01:15:00
8:35 PM,84.2,73.4,70,29.86,10.0,SSE,4.6,-,N/A,,Clear,160,2013-06-01 01:35:00
8:55 PM,83.5,73.8,72,29.86,10.0,SSE,8.1,-,N/A,,Clear,160,2013-06-01 01:55:00
9:15 PM,83.5,74.3,74,29.85,10.0,South,4.6,-,N/A,,Clear,170,2013-06-01 02:15:00
9:35 PM,82.4,74.5,77,29.86,10.0,Calm,Calm,-,N/A,,Clear,0,2013-06-01 02:35:00
9:55 PM,81.9,74.5,78,29.88,10.0,Calm,Calm,-,N/A,,Clear,0,2013-06-01 02:55:00
10:15 PM,81.7,74.3,78,29.90,10.0,Calm,Calm,-,N/A,,Clear,0,2013-06-01 03:15:00
10:35 PM,80.8,74.1,80,29.91,10.0,Calm,Calm,-,N/A,,Clear,0,2013-06-01 03:35:00
10:55 PM,79.9,74.1,82,29.91,10.0,Calm,Calm,-,N/A,,Clear,0,2013-06-01 03:55:00
11:15 PM,79.7,73.8,82,29.91,10.0,Calm,Calm,-,N/A,,Clear,0,2013-06-01 04:15:00
11:35 PM,79.5,73.6,82,29.92,10.0,Calm,Calm,-,N/A,,Clear,0,2013-06-01 04:35:00
11:55 PM,79.3,73.4,82,29.92,10.0,Calm,Calm,-,N/A,,Clear,0,2013-06-01 04:55:00